Regional Weather Roundup
Issued by NWS Little Rock, AR

Home | Current Version | Previous Version | Graphics & Text | Print | Product List | Glossary On
Versions: 1 2 3 4 5 6 7 8 9 10 11 12 13 14 15 16 17 18 19 20 21 22 23 24 25 26 27 28 29 30 31 32 33
000
ASUS44 KLZK 191905
RWRLZK

WEATHER ROUNDUP FOR ARKANSAS
NATIONAL WEATHER SERVICE LITTLE ROCK AR
100 PM CST SUN NOV 19 2017

NOTE: "FAIR" INDICATES FEW OR NO CLOUDS BELOW 12,000 FEET WITH NO
SIGNIFICANT WEATHER AND/OR OBSTRUCTIONS TO VISIBILITY.

ARZ001-003-010-029-192000-
NORTHWEST ARKANSAS

CITY           SKY/WX    TMP DP  RH WIND       PRES   REMARKS
FAYETTEVILLE   SUNNY     52  26  36 NW7       30.27F
FORT SMITH     SUNNY     57  27  31 VRB5      30.28F
HARRISON       SUNNY     51  23  33 VRB7      30.25F
BENTONVILLE    SUNNY     49  26  41 NW6       30.29F
ROGERS         SUNNY     50  27  40 VRB7      30.27F
SILOAM SPGS    SUNNY     51  28  41 NW7       30.28F
HIGHFILL       SUNNY     51  27  39 W7        30.27F
SPRINGDALE     SUNNY     52  27  37 NW9       30.28F
$$

ARZ004-005-016-192000-
NORTH CENTRAL ARKANSAS

CITY           SKY/WX    TMP DP  RH WIND       PRES   REMARKS
BATESVILLE     SUNNY     52  20  28 NW10G18   30.24F
FLIPPIN        SUNNY     51  23  33 NW9       30.26F
$$

ARZ040-041-192000-
WEST CENTRAL ARKANSAS

CITY           SKY/WX    TMP DP  RH WIND       PRES   REMARKS
MENA           SUNNY     59  23  25 N8        30.28F
MOUNT IDA      SUNNY     60  25  26 MISG      30.24
$$

ARZ009-017-025-026-028-192000-
NORTHEAST ARKANSAS

CITY           SKY/WX    TMP DP  RH WIND       PRES   REMARKS
JONESBORO      SUNNY     50  24  36 N14G20    30.23F
NEWPORT        SUNNY     53  20  27 N17       30.24F
WALNUT RIDGE     N/A    N/A N/A N/A MISG        N/A
BLYTHEVILLE    SUNNY     50  29  44 NW13      30.23F
$$

ARZ022-023-033-042-044-192000-
CENTRAL ARKANSAS

CITY           SKY/WX    TMP DP  RH WIND       PRES   REMARKS
LITTLE ROCK    MOSUNNY   56  21  25 NW12      30.26F
N LITTLE ROCK    N/A     54  24  31 N7        30.28F
JACKSONVILLE   SUNNY     57  22  26 NW9       30.24F
SEARCY         SUNNY     55  21  26 NW12      30.25F
HOT SPRINGS    SUNNY     58  22  24 N9G21     30.27F
RUSSELLVILLE   SUNNY     55  27  34 VRB3      30.25F
CLINTON        FAIR      55  21  26 NW10G18   30.25F
$$

ARZ036-192000-
EAST ARKANSAS

CITY           SKY/WX    TMP DP  RH WIND       PRES   REMARKS
WEST MEMPHIS   SUNNY     49  24  37 N10       30.22F
$$

ARZ050-053-066-070-073-192000-
SOUTHWEST ARKANSAS

CITY           SKY/WX    TMP DP  RH WIND       PRES   REMARKS
ARKADELPHIA    FAIR      60  25  26 NW12      30.27F
CAMDEN         SUNNY     61  23  23 N10       30.27F
TEXARKANA      SUNNY     58  27  30 N12       30.29F
EL DORADO      SUNNY     60  28  29 N10G20    30.28F
DE QUEEN       SUNNY     62  25  24 N9G20     30.27F
$$

ARZ056-057-069-192000-
SOUTHEAST ARKANSAS

CITY           SKY/WX    TMP DP  RH WIND       PRES   REMARKS
PINE BLUFF     SUNNY     57  24  28 NW15G22   30.26F
STUTTGART      SUNNY     56  21  25 N17       30.24F
MONTICELLO     SUNNY     57  23  26 NE8       30.25F

$$






USA.gov is the U.S. government's official web portal to all federal, state and local government web resources and services.